Wind_Speed
102 101 100 98 97 96 96 96 97 96 94 93 93 92 93 94 94 92 91 90 89 89 88 88 87 86 85 84 83 81 78 77 78 79 80 82 84 86 88 87 86 84
106 105 103 101 99 98 98 99 100 99 98 96 96 95 96 96 95 93 92 91 90 90 90 89 88 86 85 84 82 79 78 79 80 81 83 84 86 88 88 87 86 84
109 108 106 104 102 101 101 101 102 101 100 99 98 98 98 97 96 94 92 91 91 91 91 90 87 85 84 83 81 80 81 81 82 83 84 85 87 89 89 87 86 84
111 110 109 107 105 104 104 104 104 103 102 101 100 99 98 97 95 92 91 91 92 93 92 89 86 85 85 84 83 83 83 84 84 85 85 87 89 90 88 87 86 84
112 112 111 110 109 107 107 105 104 103 102 101 99 98 96 95 93 91 91 92 93 92 90 87 87 88 88 86 85 85 85 86 86 85 87 89 90 89 88 87 86 85
113 112 111 110 110 109 107 105 104 102 101 98 97 96 94 94 93 93 93 93 92 92 90 90 91 91 90 87 86 86 87 87 86 87 90 91 90 89 88 88 87 86
113 112 112 110 109 108 106 104 102 101 99 98 97 96 96 96 95 95 95 94 94 94 94 94 94 92 90 88 88 88 88 87 88 90 92 92 90 90 89 88 87 86
114 113 113 112 110 109 106 105 103 102 101 100 100 100 100 99 99 98 98 97 97 96 96 94 94 92 91 90 89 89 89 90 92 93 93 92 91 91 90 88 87 85
119 116 114 112 112 111 109 107 106 105 104 104 104 104 104 102 101 100 99 97 96 95 94 93 93 92 92 91 91 92 93 95 95 95 94 93 92 91 89 88 86 84
125 121 118 115 113 112 111 110 109 108 107 106 106 106 105 104 103 101 99 97 96 95 95 95 95 95 95 95 96 97 97 97 97 96 95 94 92 91 89 87 85 81
131 127 123 120 117 114 113 111 111 110 110 109 109 108 107 106 105 104 102 100 99 100 100 101 101 101 101 100 100 100 99 98 97 96 95 94 92 90 88 86 82 77
134 132 128 125 122 119 117 115 113 112 112 111 110 110 109 108 107 106 104 102 103 104 105 105 105 105 103 102 101 100 99 98 97 96 95 93 91 89 87 83 78 74
134 133 131 129 126 123 120 118 116 115 114 113 113 112 111 110 109 107 105 105 105 106 107 107 106 105 103 101 100 100 99 98 97 96 94 91 89 87 84 79 75 73
132 131 130 129 127 125 122 120 118 117 116 115 115 114 113 112 111 109 107 106 106 107 107 107 106 104 102 101 100 100 99 98 96 94 92 90 88 85 80 76 74 73
131 130 129 127 126 124 122 120 119 118 117 116 116 115 114 113 112 110 108 107 107 107 107 107 106 104 103 101 100 99 98 96 94 92 90 88 86 81 77 75 74 73
129 128 127 126 125 123 122 120 119 118 118 117 116 115 115 114 112 111 109 108 107 108 107 106 105 103 102 100 99 97 95 94 93 91 89 86 82 79 76 76 75 73
129 128 127 125 124 122 121 120 119 119 118 117 116 115 114 114 112 110 109 108 107 107 106 105 104 102 100 99 97 96 94 93 91 89 86 83 80 78 77 76 74 71
128 127 126 125 123 121 120 119 119 118 117 116 115 115 114 113 111 110 109 108 107 106 105 104 103 101 99 98 96 94 93 91 90 87 84 82 80 79 77 75 71 68
126 126 125 124 122 120 119 118 117 116 115 115 114 113 113 111 110 109 107 106 105 104 103 102 101 100 98 96 94 93 92 90 88 85 83 81 80 78 76 72 68 66
125 125 124 123 121 120 119 117 116 115 114 113 112 111 110 109 108 107 105 104 103 102 101 100 99 98 96 95 93 92 90 89 87 85 83 81 78 76 73 69 66 65
123 123 122 122 121 120 119 118 117 116 114 113 111 110 109 108 107 106 105 104 103 102 101 99 98 97 95 93 92 90 89 88 86 84 81 78 76 73 70 67 65 65
122 121 121 120 119 119 118 118 117 116 115 114 113 112 110 109 107 106 104 103 102 101 99 98 97 96 94 92 91 89 88 86 84 82 79 76 73 69 67 66 66 67
121 120 119 118 117 116 116 116 116 115 114 114 113 112 111 109 108 106 105 103 102 100 99 98 97 96 94 92 90 88 87 85 83 81 78 74 71 68 67 67 67 68
121 120 119 117 115 114 113 113 113 113 113 113 112 112 111 109 108 107 105 104 103 101 100 99 97 95 93 91 90 88 86 84 82 79 75 73 70 68 67 68 68 69
122 121 120 118 116 114 113 112 111 110 110 110 110 110 109 109 108 107 105 104 103 102 100 99 97 95 93 91 89 87 84 82 79 77 74 72 70 68 68 69 70 70
123 122 121 119 118 116 115 113 112 110 109 109 108 108 107 106 105 104 104 103 102 101 99 97 95 93 90 88 86 83 81 79 78 76 74 72 70 69 69 70 71 72
Wind_Direction
254 255 255 256 256 257 257 258 259 260 260 261 262 263 265 266 268 270 272 273 275 276 277 278 279 280 280 282 285 288 288 288 288 287 289 291 294 296 299 300 302 304
254 254 255 255 256 256 257 257 258 259 260 261 262 263 265 266 268 270 271 272 274 275 276 277 277 278 280 283 285 286 286 286 286 287 288 290 292 295 297 299 301 302
253 254 254 255 255 256 256 257 258 259 260 262 263 264 266 267 268 270 271 272 273 273 274 275 276 278 280 283 284 284 284 284 285 286 287 289 291 294 296 298 300 301
252 253 254 254 254 255 256 257 259 260 261 263 264 265 266 268 269 270 270 271 271 272 274 275 276 278 280 282 282 282 282 282 283 284 286 288 291 293 295 296 298 299
252 253 253 254 254 255 256 257 259 260 262 263 264 265 266 266 267 267 268 269 270 271 273 274 276 278 279 280 280 280 280 281 282 283 285 287 290 292 293 295 296 297
252 252 253 254 254 255 256 257 258 259 261 261 262 262 263 263 264 265 266 268 269 271 273 274 275 276 277 278 278 277 278 279 280 282 284 287 289 291 292 293 295 296
251 252 252 253 253 254 255 256 257 257 258 259 260 260 261 261 263 264 265 267 269 270 272 273 274 274 275 275 275 275 276 277 279 282 284 286 288 289 290 292 293 295
251 251 252 252 253 254 254 255 255 256 256 257 258 259 259 260 262 263 264 266 267 269 270 271 271 271 272 272 272 273 274 276 279 281 283 285 287 288 289 290 292 294
251 251 251 252 252 253 254 254 255 255 256 256 257 258 259 260 261 262 263 264 266 267 267 268 268 269 269 270 271 272 274 277 279 281 283 284 285 286 287 289 291 292
252 252 251 251 251 252 253 253 254 254 255 255 256 257 258 259 260 260 261 263 264 264 265 265 266 267 268 269 271 273 276 278 279 280 281 282 283 284 286 288 290 290
251 252 252 251 251 251 251 252 253 253 254 254 255 256 257 258 259 259 260 261 262 263 263 264 265 267 268 270 272 274 275 277 278 278 279 280 282 283 285 287 288 288
249 250 251 251 251 251 251 252 252 253 253 254 255 256 256 257 258 259 260 260 261 262 263 264 266 267 269 271 272 273 274 275 276 277 278 279 281 283 285 286 286 287
247 248 249 250 251 251 251 251 252 252 253 254 255 255 256 257 258 259 259 260 261 262 263 264 266 267 269 270 271 272 272 273 274 275 276 278 280 282 283 284 284 287
246 246 247 248 249 250 251 251 251 252 252 253 254 254 255 256 257 258 258 259 260 261 262 263 265 266 267 268 269 269 270 271 273 274 276 278 279 281 281 282 284 286
244 245 246 246 247 248 249 250 250 251 251 252 253 253 254 255 256 256 257 258 259 260 261 262 263 264 266 266 267 268 270 271 272 274 275 277 278 279 280 281 283 285
244 244 245 245 246 246 247 248 249 249 250 251 252 252 253 254 255 255 256 257 258 259 260 261 262 264 265 266 267 268 269 270 272 273 275 276 277 277 278 280 283 284
244 244 244 245 245 246 246 247 248 248 249 250 251 251 252 253 254 254 255 256 257 258 259 261 262 263 264 265 266 267 269 270 271 272 273 274 275 276 278 280 281 282
244 244 244 244 245 245 246 246 247 248 249 249 250 251 252 252 253 254 254 255 256 257 259 260 261 262 263 264 265 267 268 269 270 271 271 272 274 275 277 278 279 280
244 244 244 244 244 245 245 246 247 248 249 249 250 251 251 252 253 254 254 255 256 257 258 259 260 261 262 263 264 265 266 267 268 269 270 271 273 274 276 276 277 277
243 244 244 244 244 245 245 246 247 247 248 249 250 250 251 252 253 253 254 255 255 256 257 258 259 260 261 262 263 264 264 265 266 267 269 271 272 273 274 274 274 274
243 244 244 244 245 245 245 246 247 247 248 248 249 250 250 251 252 252 253 254 255 256 256 257 258 259 259 260 261 262 263 264 266 267 268 270 271 271 271 271 271 272
243 243 244 244 245 245 245 246 246 247 248 248 249 249 250 251 251 252 253 253 254 255 255 256 257 257 258 259 260 261 263 264 265 266 267 268 268 268 268 269 269 270
243 244 244 244 244 245 245 245 246 246 247 248 248 249 249 250 251 251 252 252 253 253 254 255 256 257 258 259 260 261 262 264 265 266 266 266 266 266 266 267 267 269
243 244 244 244 244 245 245 245 245 246 246 247 248 248 249 249 250 250 251 252 252 253 254 255 256 257 258 259 260 261 263 263 264 264 264 264 264 264 264 265 266 267
242 243 243 244 245 245 245 245 246 246 246 247 247 248 249 249 250 251 251 252 252 253 254 255 256 257 258 259 260 261 262 262 262 262 262 262 263 263 262 263 264 266
242 242 242 243 244 244 245 245 246 246 247 247 247 248 249 249 250 251 252 252 253 254 255 256 257 258 259 259 260 260 261 261 261 261 261 260 260 260 260 261 262 265
Height
10670 10673 10676 10680 10683 10684 10686 10686 10687 10689 10692 10695 10698 10701 10703 10702 10703 10707 10710 10711 10712 10713 10714 10715 10716 10717 10719 10719 10720 10720 10720 10720 10720 10720 10720 10718 10716 10715 10713 10712 10710 10708
10661 10664 10666 10669 10673 10675 10676 10676 10676 10678 10683 10687 10690 10692 10693 10693 10695 10700 10702 10704 10706 10706 10707 10708 10709 10710 10711 10711 10712 10713 10712 10713 10713 10713 10713 10711 10710 10709 10707 10706 10705 10703
10650 10653 10656 10660 10663 10665 10665 10665 10665 10669 10674 10679 10681 10683 10683 10684 10687 10692 10694 10696 10698 10698 10699 10700 10701 10701 10702 10703 10705 10706 10706 10706 10706 10707 10706 10705 10704 10703 10702 10701 10700 10697
10639 10643 10646 10649 10652 10654 10653 10654 10657 10660 10665 10669 10672 10672 10673 10675 10679 10683 10685 10687 10689 10689 10690 10691 10692 10692 10694 10696 10698 10699 10699 10699 10700 10700 10700 10698 10698 10697 10696 10695 10694 10692
10627 10631 10634 10637 10640 10643 10644 10646 10649 10651 10655 10658 10661 10662 10664 10666 10670 10674 10676 10678 10679 10680 10681 10682 10683 10684 10686 10690 10692 10692 10692 10692 10693 10693 10693 10691 10691 10691 10690 10689 10688 10686
10614 10619 10623 10626 10629 10632 10636 10639 10640 10642 10645 10648 10651 10652 10654 10657 10661 10665 10667 10669 10671 10672 10673 10674 10675 10676 10679 10682 10684 10684 10685 10685 10686 10686 10685 10684 10685 10684 10684 10683 10681 10679
10601 10606 10611 10615 10618 10622 10627 10630 10632 10634 10636 10639 10641 10642 10645 10648 10652 10656 10658 10661 10663 10664 10665 10666 10666 10668 10671 10674 10676 10676 10676 10677 10678 10678 10677 10677 10678 10677 10677 10676 10675 10673
10588 10593 10598 10604 10608 10613 10617 10620 10622 10625 10627 10629 10631 10632 10634 10638 10643 10647 10649 10653 10655 10656 10657 10657 10657 10659 10662 10665 10667 10667 10668 10669 10670 10670 10670 10670 10670 10670 10670 10669 10668 10667
10575 10581 10587 10592 10598 10602 10606 10610 10612 10615 10616 10619 10621 10622 10624 10629 10633 10637 10640 10644 10647 10647 10648 10648 10649 10651 10653 10656 10658 10659 10660 10661 10661 10662 10662 10662 10662 10663 10663 10662 10661 10660
10563 10568 10574 10580 10586 10591 10594 10598 10601 10603 10606 10608 10610 10612 10615 10620 10624 10627 10632 10637 10639 10639 10639 10639 10640 10641 10644 10646 10649 10651 10652 10652 10653 10653 10653 10654 10655 10655 10655 10655 10654 10653
10549 10555 10561 10567 10573 10577 10582 10585 10588 10592 10594 10597 10599 10602 10606 10610 10613 10618 10624 10629 10630 10629 10629 10629 10630 10632 10635 10638 10641 10643 10643 10643 10644 10645 10645 10646 10647 10648 10648 10647 10647 10647
10535 10541 10547 10553 10558 10563 10568 10572 10576 10580 10582 10585 10589 10592 10595 10599 10603 10609 10615 10619 10620 10618 10617 10618 10620 10623 10626 10630 10632 10633 10633 10634 10635 10636 10637 10638 10639 10640 10640 10640 10640 10640
10519 10525 10531 10538 10544 10549 10555 10559 10564 10568 10570 10574 10577 10580 10584 10588 10592 10598 10604 10607 10608 10607 10607 10608 10611 10614 10618 10621 10623 10623 10624 10624 10626 10628 10629 10630 10631 10632 10632 10632 10632 10632
10503 10509 10515 10522 10529 10535 10541 10546 10551 10555 10558 10561 10564 10568 10572 10576 10581 10587 10591 10595 10596 10596 10597 10598 10601 10605 10608 10611 10612 10613 10614 10615 10617 10619 10621 10622 10623 10624 10625 10624 10625 10625
10488 10494 10501 10507 10514 10520 10526 10532 10536 10540 10544 10548 10552 10555 10559 10563 10569 10575 10579 10583 10586 10586 10586 10589 10592 10595 10598 10600 10602 10603 10605 10606 10609 10611 10612 10614 10615 10616 10617 10617 10617 10618
10473 10480 10487 10493 10499 10505 10511 10516 10521 10525 10530 10534 10539 10543 10547 10551 10557 10562 10568 10572 10574 10575 10576 10579 10582 10585 10588 10590 10591 10593 10595 10597 10600 10602 10604 10605 10607 10608 10609 10609 10610 10610
10459 10466 10473 10480 10485 10491 10496 10501 10506 10511 10516 10521 10526 10530 10534 10539 10545 10551 10556 10560 10562 10564 10566 10568 10571 10574 10577 10578 10581 10584 10586 10588 10591 10593 10595 10597 10598 10600 10601 10601 10603 10603
10444 10452 10460 10467 10473 10478 10483 10487 10492 10497 10502 10508 10513 10517 10522 10527 10532 10538 10543 10546 10550 10553 10555 10557 10560 10562 10565 10567 10571 10574 10577 10579 10581 10584 10586 10588 10590 10591 10592 10593 10595 10595
10430 10438 10446 10453 10460 10465 10470 10475 10479 10484 10489 10495 10500 10504 10509 10515 10520 10525 10529 10533 10538 10541 10543 10545 10548 10550 10554 10558 10562 10565 10567 10569 10571 10574 10577 10579 10581 10583 10583 10585 10587 10587
10416 10424 10432 10439 10447 10452 10458 10463 10467 10472 10477 10482 10487 10492 10497 10503 10507 10512 10516 10520 10524 10527 10530 10533 10536 10540 10544 10548 10552 10555 10557 10559 10562 10565 10568 10570 10572 10574 10575 10577 10578 10579
10402 10410 10417 10425 10433 10439 10445 10451 10455 10460 10465 10470 10475 10480 10484 10489 10494 10498 10503 10508 10511 10515 10519 10522 10526 10529 10533 10538 10542 10544 10547 10549 10552 10555 10558 10560 10563 10565 10566 10568 10570 10571
10387 10395 10403 10411 10419 10425 10432 10438 10443 10448 10453 10457 10462 10466 10471 10476 10482 10487 10491 10495 10499 10503 10507 10511 10514 10518 10523 10527 10531 10534 10537 10540 10542 10545 10548 10551 10554 10556 10558 10559 10561 10563
10373 10381 10388 10396 10404 10410 10417 10423 10429 10435 10440 10445 10449 10453 10458 10464 10469 10473 10478 10482 10486 10491 10495 10499 10503 10507 10513 10517 10521 10524 10527 10529 10532 10535 10538 10541 10544 10547 10549 10550 10553 10555
10359 10366 10374 10381 10389 10395 10401 10408 10414 10420 10426 10431 10436 10440 10445 10451 10455 10460 10465 10470 10474 10479 10483 10488 10492 10497 10503 10507 10510 10514 10516 10519 10521 10525 10528 10531 10534 10538 10540 10542 10544 10546
10345 10352 10359 10367 10375 10381 10387 10393 10399 10405 10411 10417 10422 10427 10432 10437 10442 10448 10454 10458 10462 10467 10472 10478 10482 10487 10492 10496 10499 10502 10505 10508 10511 10514 10518 10521 10524 10529 10532 10533 10535 10538
10330 10338 10345 10353 10360 10367 10373 10380 10386 10392 10398 10403 10409 10414 10419 10425 10431 10436 10441 10446 10450 10456 10462 10466 10471 10476 10480 10484 10488 10491 10494 10497 10500 10504 10507 10511 10515 10520 10523 10525 10527 10529